This is the latest recevied weather packets stored in our database for station/object WD7OO. If no packets are shown the sender has not sent any weather packets the latest 1 day(s).
| Time | Temp. | Humidity | Pressure | Rain* | Wind** | Luminosity | Snow |
|---|---|---|---|---|---|---|---|
| 1777988105 | 8.89° C | 76% | 1008.7 hPa | 0 mm | 0.89 m/s, 320° | 23 W/m² | - |
| 1777987800 | 8.89° C | 75% | 1008.5 hPa | 0 mm | 0.45 m/s, 318° | 17 W/m² | - |
| 1777987497 | 8.89° C | 75% | 1008.7 hPa | 0 mm | 1.34 m/s, 296° | 21 W/m² | - |
| 1777987195 | 8.89° C | 75% | 1008.6 hPa | 0 mm | 0.45 m/s, 294° | 23 W/m² | - |
| 1777986891 | 9.44° C | 77% | 1008.8 hPa | 0 mm | 1.34 m/s, 284° | 25 W/m² | - |
| 1777986590 | 9.44° C | 78% | 1008.5 hPa | 0 mm | 0 m/s | 35 W/m² | - |
| 1777986287 | 9.44° C | 78% | 1008.4 hPa | 0 mm | 0.45 m/s, 308° | 34 W/m² | - |
| 1777985984 | 9.44° C | 78% | 1008.5 hPa | 0 mm | 0.89 m/s, 346° | 41 W/m² | - |
| 1777985682 | 10° C | 76% | 1007.9 hPa | 0 mm | 1.34 m/s, 290° | 50 W/m² | - |
| 1777985378 | 10° C | 76% | 1007.6 hPa | 0 mm | 1.79 m/s, 300° | 90 W/m² | - |
| 1777985075 | 10° C | 77% | 1007.4 hPa | 0 mm | 0.89 m/s, 332° | 131 W/m² | - |
| 1777984771 | 10° C | 77% | 1007.2 hPa | 0 mm | 0.45 m/s, 286° | 138 W/m² | - |
| 1777984468 | 10° C | 77% | 1007.6 hPa | 0 mm | 0.89 m/s, 275° | 144 W/m² | - |
| 1777984164 | 10° C | 75% | 1007.4 hPa | 0 mm | 0.89 m/s, 338° | 156 W/m² | - |
| 1777983861 | 10° C | 75% | 1007.3 hPa | 0 mm | 0.89 m/s, 315° | 152 W/m² | - |
| 1777983558 | 10° C | 73% | 1007.4 hPa | 0 mm | 1.34 m/s, 253° | 136 W/m² | - |
| 1777983255 | 10° C | 73% | 1007.8 hPa | 0 mm | 0.89 m/s, 289° | 124 W/m² | - |
| 1777982951 | 10° C | 73% | 1007.5 hPa | 0 mm | 1.79 m/s, 306° | 96 W/m² | - |
| 1777982647 | 10° C | 73% | 1007 hPa | 0 mm | 1.34 m/s, 254° | 88 W/m² | - |
| 1777982346 | 10° C | 74% | 1006.4 hPa | 0 mm | 0.45 m/s, 297° | 90 W/m² | - |
| 1777982043 | 10° C | 72% | 1006.2 hPa | 0 mm | 0.45 m/s, 331° | 72 W/m² | - |
| 1777981741 | 10° C | 72% | 1006.9 hPa | 0 mm | 0.45 m/s, 306° | 64 W/m² | - |
| 1777981437 | 10° C | 75% | 1006.4 hPa | 0 mm | 0.89 m/s, 292° | 74 W/m² | - |
| 1777981134 | 9.44° C | 75% | 1006.4 hPa | 0 mm | 0.45 m/s, 290° | 48 W/m² | - |
| 1777980830 | 9.44° C | 77% | 1005.8 hPa | 0 mm | 0.45 m/s, 279° | 39 W/m² | - |
* Rain latest hour (hover to see other rain measurements)
** Current wind speed in m/s (hover to see current wind gust speed)